Volver al catálogo

STARLINK-38030

ActivoComunicacionesSSO
NORAD 100118·PAYLOAD·🇺🇸 United States

Lanzado Jul 21, 2026 desde Vandenberg Space Force Base

Loading…

Próximos Pases (próximas 24 horas)

TLE

ActualizadoSource: Space-Track

Época: Sep 14, 2026, 11:34 UTC

1 A0118U 26166T   26257.48220117 -.00000626  00000-0 -33324-5 0  9994
2 A0118  97.2829 275.4948 0001008 111.6293 248.5080 15.75173305  8653

Sigue STARLINK-38030 en tiempo real con AllMySat

Download on the App Store